Terminal Aerodrome Forecast
Issued by NWS

Home | Current Version | Previous Version | Text Only | Print | Product List | Glossary On
Versions: 1 2 3 4 5 6 7 8 9 10 11 12 13 14 15 16 17 18 19 20 21 22 23 24 25 26 27 28 29 30 31 32 33 34 35 36 37 38 39 40 41 42 43 44 45 46 47 48 49 50
000
FTUS41 KCTP 030906 AAA
TAFBFD
TAF AMD
KBFD 030906Z 0309/0406 00000KT P6SM SCT030
      TEMPO 0309/0311 1SM BR SCT001
     FM031500 12005KT P6SM SCT050
     FM040000 13005KT P6SM BKN050=

USA.gov is the U.S. government's official web portal to all federal, state and local government web resources and services.